| time (UTC) | temp C | wind direction | speed KPH | gust KPH | rain 1hr cm | rain 24hr cm | rain mn cm | humidity % | barometer mb |
| 20260505041515 | 13 | 213 | 1.6 | 8.0 | 0.00 | 0.00 | 0.00 | 58 | 1003.9 |
| 20260505040021 | 12 | 197 | 0.0 | 6.4 | 0.00 | 0.00 | 0.00 | 60 | 1003.9 |
| 20260505034527 | 12 | 191 | 3.2 | 9.7 | 0.00 | 0.00 | 0.00 | 60 | 1003.8 |
| 20260505033030 | 12 | 191 | 0.0 | 4.8 | 0.00 | 0.00 | 0.00 | 59 | 1003.9 |
| 20260505031512 | 13 | 213 | 0.0 | 4.8 | 0.00 | 0.00 | 0.00 | 58 | 1003.8 |
| 20260505030036 | 13 | 197 | 3.2 | 8.0 | 0.00 | 0.00 | 0.00 | 57 | 1003.8 |
| 20260505024525 | 13 | 195 | 1.6 | 8.0 | 0.00 | 0.00 | 0.00 | 57 | 1003.8 |
| 20260505023032 | 12 | 175 | 3.2 | 9.7 | 0.00 | 0.03 | 0.00 | 59 | 1003.9 |
| 20260505021512 | 12 | 178 | 1.6 | 8.0 | 0.00 | 0.05 | 0.00 | 63 | 1004.0 |
| 20260505020008 | 12 | 283 | 1.6 | 3.2 | 0.00 | 0.08 | 0.00 | 67 | 1004.0 |
| 20260505014517 | 12 | 283 | 0.0 | 3.2 | 0.00 | 0.10 | 0.00 | 65 | 1004.2 |
| 20260505013003 | 12 | 283 | 0.0 | 1.6 | 0.00 | 0.13 | 0.00 | 65 | 1004.1 |
| 20260505011512 | 13 | 283 | 0.0 | 3.2 | 0.00 | 0.15 | 0.00 | 62 | 1004.2 |
| 20260505010008 | 13 | 283 | 0.0 | 3.2 | 0.00 | 0.20 | 0.00 | 59 | 1004.1 |
| 20260505004527 | 15 | 283 | 0.0 | 3.2 | 0.00 | 0.23 | 0.00 | 56 | 1004.2 |
| 20260505003012 | 16 | 283 | 0.0 | 0.0 | 0.00 | 0.23 | 0.00 | 51 | 1004.2 |
| 20260505001506 | 17 | 283 | 0.0 | 0.0 | 0.00 | 0.23 | 0.00 | 45 | 1004.3 |
| 20260505000016 | 18 | 283 | 0.0 | 4.8 | 0.00 | 0.23 | 0.00 | 40 | 1004.2 |
| 20260504234518 | 20 | 160 | 0.0 | 4.8 | 0.00 | 0.23 | 0.00 | 39 | 1004.0 |
| 20260504233017 | 20 | 251 | 0.0 | 6.4 | 0.00 | 0.23 | 0.00 | 36 | 1003.9 |
| 20260504231512 | 21 | 234 | 0.0 | 6.4 | 0.00 | 0.23 | 0.00 | 35 | 1003.8 |
| 20260504230010 | 21 | 259 | 3.2 | 14.5 | 0.00 | 0.23 | 0.00 | 34 | 1003.9 |
| 20260504224511 | 21 | 274 | 6.4 | 16.1 | 0.00 | 0.23 | 0.00 | 34 | 1004.0 |
| 20260504223012 | 21 | 272 | 3.2 | 11.3 | 0.00 | 0.23 | 0.00 | 32 | 1004.0 |
| 20260504221511 | 21 | 271 | 6.4 | 20.9 | 0.00 | 0.23 | 0.00 | 32 | 1004.1 |
| 20260504220013 | 21 | 295 | 11.3 | 20.9 | 0.00 | 0.23 | 0.00 | 34 | 1004.2 |
| 20260504214512 | 21 | 340 | 3.2 | 17.7 | 0.00 | 0.23 | 0.00 | 39 | 1004.4 |
| 20260504213031 | 21 | 275 | 6.4 | 16.1 | 0.00 | 0.23 | 0.00 | 38 | 1004.3 |
| 20260504211515 | 21 | 240 | 3.2 | 22.5 | 0.00 | 0.23 | 0.00 | 37 | 1004.4 |
| 20260504210014 | 21 | 279 | 9.7 | 22.5 | 0.00 | 0.23 | 0.00 | 37 | 1004.4 |
| 20260504204518 | 20 | 277 | 6.4 | 22.5 | 0.00 | 0.23 | 0.00 | 38 | 1004.5 |
| 20260504203014 | 21 | 229 | 14.5 | 25.7 | 0.00 | 0.23 | 0.00 | 36 | 1004.5 |
| 20260504201518 | 20 | 244 | 8.0 | 19.3 | 0.00 | 0.23 | 0.00 | 38 | 1004.8 |
| 20260504200020 | 21 | 275 | 12.9 | 27.4 | 0.00 | 0.23 | 0.00 | 35 | 1005.0 |
| 20260504194523 | 21 | 294 | 11.3 | 22.5 | 0.00 | 0.23 | 0.00 | 38 | 1005.1 |
| 20260504193016 | 21 | 275 | 8.0 | 22.5 | 0.00 | 0.23 | 0.00 | 41 | 1005.4 |
| 20260504191516 | 20 | 258 | 9.7 | 30.6 | 0.00 | 0.23 | 0.00 | 42 | 1005.4 |
| 20260504190021 | 19 | 240 | 9.7 | 22.5 | 0.00 | 0.23 | 0.00 | 42 | 1005.6 |
| 20260504184536 | 20 | 262 | 11.3 | 25.7 | 0.00 | 0.23 | 0.00 | 41 | 1005.7 |
| 20260504183007 | 19 | 276 | 11.3 | 32.2 | 0.00 | 0.23 | 0.00 | 42 | 1005.8 |
| 20260504181512 | 20 | 305 | 9.7 | 19.3 | 0.00 | 0.23 | 0.00 | 42 | 1005.9 |
| 20260504180020 | 18 | 245 | 12.9 | 25.7 | 0.00 | 0.23 | 0.00 | 44 | 1006.1 |
| 20260504174522 | 18 | 296 | 4.8 | 29.0 | 0.00 | 0.23 | 0.00 | 45 | 1006.2 |
| 20260504173013 | 18 | 259 | 12.9 | 32.2 | 0.00 | 0.23 | 0.00 | 45 | 1006.3 |
| 20260504171511 | 18 | 284 | 9.7 | 25.7 | 0.00 | 0.23 | 0.00 | 46 | 1006.4 |
| 20260504081511 | 5 | 227 | 1.6 | 6.4 | 0.00 | 0.23 | 0.00 | 95 | 1008.3 |